EW9551 Weather Reports


Display with metric or nautical units.
time (UTC)temp
F
wind
direction
speed
MPH
gust
MPH
rain 1hr
in
rain 24hr
in
rain mn
in
humidity
%
barometer
mb
20260902124447 85 0 0.0 6.0 0.00 0.00 0.00 41 980.4
20260902121451 85 51 0.0 5.0 0.00 0.00 0.00 42 980.7
20260902114447 85 306 0.0 8.0 0.00 0.00 0.00 43 980.8
20260902111447 84 0 0.0 2.0 0.00 0.00 0.00 44 980.8
20260902104446 83 0 0.0 0.0 0.00 0.00 0.00 47 981.2
20260902101444 81 0 0.0 0.0 0.00 0.00 0.00 48 981.2
20260902095828 80 0 0.0 0.0 0.00 0.00 0.00 50 981.4
20260902091444 77 0 0.0 0.0 0.00 0.00 0.00 56 981.5
20260902084444 74 0 0.0 0.0 0.00 0.00 0.00 60 981.4
20260902082829 73 0 0.0 0.0 0.00 0.00 0.00 61 981.1
20260902074439 70 0 0.0 0.0 0.00 0.00 0.00 67 980.9
20260902071437 66 55 0.0 0.0 0.00 0.00 0.00 77 980.5
20260902064438 62 54 0.0 0.0 0.00 0.00 0.00 80 980.2
20260902061437 60 55 0.0 0.0 0.00 0.00 0.00 84 980.3
20260902051432 57 0 0.0 0.0 0.00 0.00 0.00 85 980.1
20260902041430 58 0 0.0 0.0 0.00 0.00 0.00 83 979.9
20260902034430 58 54 0.0 0.0 0.00 0.00 0.00 83 979.8
20260902031431 58 53 0.0 0.0 0.00 0.00 0.00 82 979.7
20260902024432 59 0 0.0 0.0 0.00 0.00 0.00 81 979.7
20260902022809 59 0 0.0 0.0 0.00 0.00 0.00 80 979.9
20260902015807 60 0 0.0 0.0 0.00 0.00 0.00 79 979.7
20260902011430 60 0 0.0 0.0 0.00 0.00 0.00 78 979.8
20260902004436 60 0 0.0 0.0 0.00 0.00 0.00 78 979.7
20260902001430 61 0 0.0 0.0 0.00 0.00 0.00 77 979.7
20260901234431 61 0 0.0 0.0 0.00 0.00 0.00 75 979.8
20260901231431 62 0 0.0 0.0 0.00 0.00 0.00 73 979.9
20260901224430 62 0 0.0 0.0 0.00 0.00 0.00 73 979.8
20260901221431 63 0 0.0 0.0 0.00 0.00 0.00 72 979.8
20260901214430 63 0 0.0 0.0 0.00 0.00 0.00 71 979.9
20260901211432 64 0 0.0 0.0 0.00 0.00 0.00 70 979.7
20260901204432 65 0 0.0 0.0 0.00 0.00 0.00 69 979.9
20260901201431 66 0 0.0 0.0 0.00 0.00 0.00 65 979.8
20260901194430 67 0 0.0 0.0 0.00 0.00 0.00 63 979.5
20260901191432 69 0 0.0 0.0 0.00 0.00 0.00 61 979.2
20260901191204 71 0 0.0 0.0 0.00 0.00 0.00 59 979.1
20260901181432 73 0 0.0 0.0 0.00 0.00 0.00 53 978.9
20260901174430 75 0 0.0 0.0 0.00 0.00 0.00 52 978.8
20260901171430 77 0 0.0 0.0 0.00 0.00 0.00 50 978.8
20260901164431 78 55 0.0 0.0 0.00 0.00 0.00 47 978.9
20260901161430 79 0 0.0 5.0 0.00 0.00 0.00 45 979.0
20260901154430 80 0 0.0 4.0 0.00 0.00 0.00 44 979.2
20260901151430 80 0 0.0 4.0 0.00 0.00 0.00 43 979.3
20260901144432 81 0 0.0 5.0 0.00 0.00 0.00 45 979.3
20260901141430 81 44 0.0 0.0 0.00 0.00 0.00 45 979.6
20260901134430 82 305 0.0 4.0 0.00 0.00 0.00 45 979.8
20260901131431 82 48 0.0 5.0 0.00 0.00 0.00 44 980.0